This is the latest recevied weather packets stored in our database for station/object EA1IOK-1. If no packets are shown the sender has not sent any weather packets the latest 10 day(s).
| Time | Temp. | Humidity | Pressure | Rain* | Wind** | Luminosity | Snow |
|---|---|---|---|---|---|---|---|
| 1777578636 | 15° C | 100% | 1016.5 hPa | - | - | - | - |
| 1777577736 | 15° C | 100% | 1016.3 hPa | - | - | - | - |
| 1777576834 | 15° C | 100% | 1016.1 hPa | - | - | - | - |
| 1777575934 | 15.56° C | 100% | 1016 hPa | - | - | - | - |
| 1777575033 | 16.11° C | 100% | 1016.1 hPa | - | - | - | - |
| 1777574133 | 16.67° C | 100% | 1016 hPa | - | - | - | - |
| 1777573232 | 17.22° C | 100% | 1015.8 hPa | - | - | - | - |
| 1777572332 | 17.22° C | 100% | 1015.7 hPa | - | - | - | - |
| 1777571432 | 17.78° C | 100% | 1015.5 hPa | - | - | - | - |
| 1777570531 | 18.33° C | 100% | 1015.6 hPa | - | - | - | - |
| 1777569630 | 17.78° C | 100% | 1015.5 hPa | - | - | - | - |
| 1777568727 | 18.33° C | 100% | 1015.5 hPa | - | - | - | - |
| 1777567827 | 18.33° C | 100% | 1015.4 hPa | - | - | - | - |
| 1777566926 | 18.33° C | 100% | 1015.4 hPa | - | - | - | - |
| 1777566026 | 18.89° C | 100% | 1015.3 hPa | - | - | - | - |
| 1777565125 | 18.89° C | 100% | 1015.3 hPa | - | - | - | - |
| 1777564225 | 20° C | 100% | 1015.1 hPa | - | - | - | - |
| 1777563324 | 20° C | 100% | 1015.2 hPa | - | - | - | - |
| 1777562424 | 21.11° C | 100% | 1015.2 hPa | - | - | - | - |
| 1777561523 | 21.11° C | 100% | 1015.2 hPa | - | - | - | - |
| 1777560623 | 21.67° C | 100% | 1015.1 hPa | - | - | - | - |
| 1777559722 | 21.67° C | 100% | 1015.2 hPa | - | - | - | - |
| 1777558821 | 21.67° C | 100% | 1015.2 hPa | - | - | - | - |
| 1777557920 | 22.22° C | 100% | 1015.2 hPa | - | - | - | - |
| 1777557019 | 20.56° C | 100% | 1015.1 hPa | - | - | - | - |
* Rain since midnight (hover to see other rain measurements)
** Current wind speed in m/s (hover to see current wind gust speed)